Regional Weather Roundup
Issued by NWS Bismarck, ND

Home | Current Version | Previous Version | Text Only | Print | Product List | Glossary On
Versions: 1 2 3 4 5 6 7 8 9 10 11 12 13 14 15 16 17 18 19 20 21 22 23 24 25 26 27 28 29 30 31 32 33 34 35 36 37 38 39 40 41 42 43 44 45 46 47 48 49 50
953
ASUS43 KBIS 262202
RWRBIS

NWR BROADCAST TEXT
NATIONAL WEATHER SERVICE BISMARCK ND
400 PM CST SUN FEB 26 2017

NOTE: "FAIR" INDICATES FEW OR NO CLOUDS BELOW 12,000 FEET WITH NO
SIGNIFICANT WEATHER AND/OR OBSTRUCTIONS TO VISIBILITY.


CITY           SKY/WX    TMP DP  RH WIND       PRES   REMARKS
WILLISTON      FAIR      24  15  68 NW9       29.78R WCI  14
MINOT          FAIR      21   9  59 S10       29.77R WCI  10
MINOT AFB      FAIR      20  11  67 SW8       29.77R WCI  11
BISMARCK       CLOUDY    22  16  78 E10       29.79R WCI  11
DICKINSON      CLOUDY    27  18  69 N15       29.70R WCI  15
GARRISON         N/A     22  13  68 CALM      29.77R
HETTINGER ARPT CLOUDY    34  21  59 W17       29.71S
JAMESTOWN      CLOUDY    21  12  68 W3        29.81R
CARRINGTON     CLOUDY    18  12  79 CALM      29.83S
HAZEN          CLOUDY   N/A N/A N/A NE3       29.80R
MANDAN         MIX PCPN  23  18  80 E8        29.77R WCI  14
STANLEY        FAIR      19  16  86 W9        29.76R WCI   9
$$

CITY           SKY/WX    TMP DP  RH WIND       PRES   REMARKS
GRAND FORKS    FAIR      19   4  51 W9        29.86S WCI   8
GRAND FORKS AF FAIR      19   7  59 W8        29.86S WCI   9
DEVILS LAKE    FAIR      15   9  76 SW8       29.82R WCI   4
FARGO          FAIR      20   9  62 W7        29.89S WCI  11
CAVALIER         N/A     19   9  63 W10       29.82S WCI   8
GRAFTON        FAIR      19  10  68 W16       29.86S WCI   5
GWINNER        MOCLDY    25  18  74 E5        29.86R WCI  19
ROLLA          FAIR      14   9  79 SW13      29.75S WCI   0
$$

CITY           SKY/WX    TMP DP  RH WIND       PRES   REMARKS
ABERDEEN       FAIR      32  19  58 S5        29.82F
MOBRIDGE       CLOUDY    39  20  46 NW7       29.73R
BUFFALO          N/A     37  17  44 W22G32    29.65R
RAPID CITY     FAIR      37  15  40 NE7       29.75S
GLASGOW        PTSUNNY   25  13  60 N14       29.78S WCI  13
SIDNEY         PTSUNNY   28  17  63 NW13      29.79R WCI  17
WOLF POINT     CLOUDY    28  16  60 NW12      29.79R WCI  18
GLENDIVE       CLOUDY    27  17  66 NW13      29.77R WCI  16
MILES CITY     FAIR      34  15  46 NW14      29.75R
BAKER          CLOUDY    28  20  71 NW21      29.73R WCI  15
$$

CITY           SKY/WX    TMP DP  RH WIND       PRES   REMARKS
BILLINGS       CLOUDY    34  11  38 VRB3      29.68F
GREAT FALLS    LGT SNOW  21  15  78 N13       29.74S VSB 3/4 WCI   9
ESTEVAN        LGT SNOW  21  18  86 NW14      29.74R DRFTSNOWWCI   8
$$





USA.gov is the U.S. government's official web portal to all federal, state and local government web resources and services.